Location: Beemte
(52.2555°N, 5.9895°E)
Time: 15:33:21
(UTC+00:00)

ADEOS - Pass Details

Date: 15 May 2026
Orbit: 789 x 792 km, 98.8° (Epoch: 10 June)

Event Time Altitude Azimuth Distance (km) Brightness Sun altitude
Rises 20:25:18 0° 180° (S) 3,279 6.3 -8.0°
Reaches altitude 10° 20:27:42 10° 186° (S) 2,354 5.7 -8.2°
Maximum altitude 20:32:43 47° 260° (W) 1,040 4.5 -8.7°
Drops below altitude 10° 20:37:46 10° 335° (NNW) 2,370 7.5 -9.3°
Sets 20:40:11 0° 341° (NNW) 3,303 8.2 -9.5°
